Retour au catalogue

ONEWEB-0109

ActifCommunicationsPO
NORAD 47259·PAYLOAD·🇬🇧 United Kingdom

Lancé Dec 18, 2020 depuis Vostochny Cosmodrome

Loading…

Prochains Passages (prochaines 24 heures)

TLE

FraisSource: CelesTrak SupGP

Époque: Sep 14, 2026, 15:48 UTC

1 47259C 20100B   26257.65849949  .00002320  00000+0  64550-2 0  2571
2 47259  87.8998 332.9007 0001738  99.0506 325.4699 13.12446906    15

Suivez ONEWEB-0109 en temps réel avec AllMySat

Download on the App Store